This is the latest recevied weather packets stored in our database for station/object HS2LXA-WX. If no packets are shown the sender has not sent any weather packets the latest 10 day(s).
| Time | Temp. | Humidity | Pressure | Rain* | Wind** | Luminosity | Snow |
|---|---|---|---|---|---|---|---|
| 1788152993 | 32.22° C | 83% | 1010.1 hPa | 0 mm | - | - | - |
| 1788152393 | 32.22° C | 82% | 1010.3 hPa | 0 mm | - | - | - |
| 1788151503 | 32.78° C | 81% | 1010.4 hPa | 0 mm | - | - | - |
| 1788150902 | 32.78° C | 81% | 1010.5 hPa | 0 mm | - | - | - |
| 1788150301 | 32.78° C | 82% | 1010.6 hPa | 0 mm | - | - | - |
| 1788149701 | 32.22° C | 83% | 1010.6 hPa | 0 mm | - | - | - |
| 1788148993 | 32.22° C | 84% | 1010.6 hPa | 0 mm | - | - | - |
| 1788148234 | 31.67° C | 85% | 1010.8 hPa | 0 mm | - | - | - |
| 1788147635 | 31.67° C | 86% | 1010.8 hPa | 0 mm | - | - | - |
| 1788147034 | 31.11° C | 87% | 1010.7 hPa | 0 mm | - | - | - |
| 1788146434 | 31.11° C | 87% | 1010.8 hPa | 0 mm | - | - | - |
| 1788145832 | 31.11° C | 86% | 1010.9 hPa | 0 mm | - | - | - |
| 1788145232 | 31.11° C | 87% | 1010.9 hPa | 0 mm | - | - | - |
| 1788144630 | 31.11° C | 87% | 1010.9 hPa | 0 mm | - | - | - |
| 1788143580 | 31.67° C | 86% | 1010.9 hPa | 0 mm | - | - | - |
| 1788142980 | 31.67° C | 86% | 1011 hPa | 0 mm | - | - | - |
| 1788141571 | 31.11° C | 88% | 1010.9 hPa | 0 mm | - | - | - |
| 1788140584 | 30.56° C | 89% | 1010.8 hPa | 0 mm | - | - | - |
| 1788139837 | 31.11° C | 88% | 1010.7 hPa | 0 mm | - | - | - |
| 1788138002 | 31.11° C | 89% | 1010.5 hPa | 0 mm | - | - | - |
| 1788137402 | 31.11° C | 89% | 1010.4 hPa | 0 mm | - | - | - |
| 1788136802 | 31.11° C | 89% | 1010.3 hPa | 0 mm | - | - | - |
| 1788136202 | 31.11° C | 89% | 1010.1 hPa | 0 mm | - | - | - |
| 1788135602 | 31.11° C | 88% | 1009.9 hPa | 0 mm | - | - | - |
| 1788134702 | 31.11° C | 89% | 1009.8 hPa | 0 mm | - | - | - |
* Rain latest hour (hover to see other rain measurements)
** Current wind speed in m/s (hover to see current wind gust speed)